Regional Weather Roundup
Issued by NWS Mt. Holly, NJ

Current Version | Previous Version | Text Only | Print | Product List | Glossary On
Versions: 1 2 3 4 5 6 7 8 9 10 11 12 13 14 15 16 17 18 19 20 21 22 23 24 25 26 27 28 29 30 31 32 33 34 35 36 37 38 39 40 41 42 43 44 45 46 47 48 49 50
493 ASUS41 KPHI 210212 RWRPHI REGIONAL WEATHER ROUNDUP NATIONAL WEATHER SERVICE MOUNT HOLLY NJ 1000 PM EDT TUE APR 20 2021 NOTE: "FAIR" INDICATES FEW OR NO CLOUDS BELOW 12,000 FEET WITH NO SIGNIFICANT WEATHER AND/OR OBSTRUCTIONS TO VISIBILITY. * = STATION DOES NOT REPORT PRECIPITATION (E.G. RAIN, SNOW, ETC.) OR FOG. NJZ015>026-210300- SOUTHERN NEW JERSEY CITY SKY/WX TMP DP RH WIND PRES REMARKS POMONA CLEAR 58 40 51 S15G24 29.95S WILDWOOD* CLEAR 56 47 71 S15 29.96F MILLVILLE CLEAR 59 43 55 VRB5 29.93S WRIGHTSTOWN CLEAR 58 40 50 S14G21 29.91S MOUNT HOLLY CLEAR 61 43 51 S7 29.91R TRENTON CLEAR 61 42 49 S10 29.89R $$ NJZ001>014-210300- NORTHERN NEW JERSEY CITY SKY/WX TMP DP RH WIND PRES REMARKS SUSSEX PTCLDY 63 39 41 CALM 29.88R ANDOVER* N/A 64 39 39 VRB5 29.87R MORRISTOWN CLEAR 64 45 48 S12G17 29.89R NEWARK PTCLDY 64 42 44 S10 29.89R TETERBORO CLEAR 63 42 46 S14 29.88R CALDWELL CLEAR 67 41 38 S8G18 29.88R SOMERVILLE CLEAR 63 42 46 S8 29.87R ALLAIRE* CLEAR 60 39 45 S12 29.94S TOMS RIVER* CLEAR 57 40 52 S12G20 29.94S $$ PAZ043-044-047-054-055-060>062-066>071-210300- EASTERN PENNSYLVANIA CITY SKY/WX TMP DP RH WIND PRES REMARKS PHILADELPHIA MOCLDY 63 44 50 S17G28 29.89S NORTH PHILA CLEAR 62 43 49 S6 29.91S BLUE BELL* N/A N/A N/A N/A MISG N/A DOYLESTOWN CLEAR 62 42 47 S8 29.88R QUAKERTOWN* CLEAR 63 41 45 S9 29.87F PERKASIE* FAIR 63 39 42 S6 29.89S POTTSTOWN CLEAR 63 40 42 S9 29.89R LANCASTER PTCLDY 63 42 46 S9 29.85R COATESVILLE CLEAR 61 41 48 S7G14 29.89S WEST CHESTER FAIR 63 39 42 S6 29.89S READING PTCLDY 64 42 44 S16G22 29.83S ALLENTOWN PTCLDY 65 39 38 S9 29.85S QN CITY/ALNTWN FAIR 64 41 42 S9G18 29.87R MOUNT POCONO CLOUDY 57 36 45 SW3 29.88R HAZLETON CLOUDY 55 37 50 N9 29.90R LEHIGHTON CLOUDY 63 37 39 W3 29.87R WILKES BARRE MOCLDY 51 37 58 NE7 29.91R $$ DEZALL-MDZ008-012-015-019-020-210300- DELAWARE AND EASTERN MARYLAND CITY SKY/WX TMP DP RH WIND PRES REMARKS WILMINGTON CLEAR 61 45 55 S14 29.89S DOVER CLEAR 60 42 52 S15 29.90F CHESWOLD CLEAR 61 45 55 S10 29.91S GEORGETOWN CLEAR 61 39 44 S12G20 29.94F EASTON CLEAR 63 46 55 S14G20 29.94S ABERDEEN CLEAR 63 46 54 S13G18 29.86S PATUXENT CLEAR 61 52 72 S8 29.90S OCEAN CITY CLEAR 57 48 72 MISG 29.97F WALLOPS ISLAND CLEAR 58 45 62 S16 29.97F CAMBRIDGE CLEAR 61 48 63 S15G21 29.92S SALISBURY CLEAR 59 39 47 S10 29.95S $$ PAZ001-021-NYZ056-072-MDZ011-DCZ001-210300- OTHER NEARBY LOCATIONS CITY SKY/WX TMP DP RH WIND PRES REMARKS HARRISBURG PTCLDY 65 43 44 S12 29.82R STATE COLLEGE MOCLDY 57 39 51 NE18G24 29.83R WILLIAMSPORT CLOUDY 51 37 58 CALM 29.88S BINGHAMTON MOCLDY 39 30 70 N8 29.93R WCI 33 NEW YORK CITY CLEAR 65 39 38 VRB5 29.92R BALTIMORE CLEAR 62 48 60 SE7 29.85S WASHINGTON DC CLEAR 65 46 50 S14 29.86R $$

USA.gov is the U.S. government's official web portal to all federal, state and local government web resources and services.